Location: Brompton
(51.4000°N, 0.5333°E)
Time: 09:46:37
(UTC+00:00)

SeaSat 1 - Pass Details

Date: 11 May 2021
Orbit: 744 x 747 km, 108.0° (Epoch: 12 June)

Event Time Altitude Azimuth Distance (km) Brightness Sun altitude
Rises 23:01:55 0° 42° (NE) 3,202 6.2 -19.5°
Reaches altitude 10° 23:04:57 10° 62° (ENE) 2,272 5.1 -19.6°
Maximum altitude 23:08:14 18° 104° (ESE) 1,795 4.2 -19.7°
Enters shadow 23:08:33 18° 109° (ESE) 1,800 4.1 -19.8°
